BAW904N EGLL-EDDF

Flight info

Callsign BAW904N
Flight time 1h 7m
Altitude 35000
Route DCT DET L6 DVR UL9 KONAN UL607 SPI T180 NIVNU T847 IMCOM DCT
Aircraft A320/M-SDE3FGHIKRWXY/S

Departure

Time 2026-04-15 09:10
Airport London Heathrow Airport (EGLL)

Arrival

Time 2026-04-15 10:17
Airport Frankfurt Main Airport (EDDF)
Time Latitude Longitude Altitude Speed Heading
2026-04-15 08:22 51.47213 -0.48032 86 ft 0 kts 270°
2026-04-15 08:37 51.47213 -0.48031 86 ft 0 kts 270°
2026-04-15 08:54 51.47213 -0.48010 88 ft 4 kts 270°
2026-04-15 08:54 51.47213 -0.47967 86 ft 4 kts 270°
2026-04-15 08:54 51.47214 -0.47924 86 ft 4 kts 276°
2026-04-15 08:54 51.47206 -0.47886 89 ft 4 kts 315°
2026-04-15 08:55 51.47187 -0.47871 88 ft 1 kts 360°
2026-04-15 08:55 51.47169 -0.47870 87 ft 0 kts 360°
2026-04-15 08:58 51.47184 -0.47870 88 ft 4 kts
2026-04-15 08:59 51.47221 -0.47870 86 ft 7 kts 358°
2026-04-15 08:59 51.47280 -0.47871 86 ft 10 kts
2026-04-15 08:59 51.47361 -0.47872 86 ft 13 kts 360°
2026-04-15 08:59 51.47464 -0.47873 87 ft 16 kts 359°
2026-04-15 09:00 51.47559 -0.47863 89 ft 12 kts 25°
2026-04-15 09:00 51.47581 -0.47733 86 ft 14 kts 91°
2026-04-15 09:00 51.47581 -0.47559 88 ft 17 kts 90°
2026-04-15 09:00 51.47581 -0.47352 90 ft 20 kts 90°
2026-04-15 09:01 51.47582 -0.47131 90 ft 18 kts 90°
2026-04-15 09:01 51.47582 -0.46937 90 ft 12 kts 91°
2026-04-15 09:01 51.47591 -0.46788 86 ft 15 kts 88°
2026-04-15 09:01 51.47592 -0.46603 86 ft 18 kts 89°
2026-04-15 09:02 51.47594 -0.46384 86 ft 21 kts 88°
2026-04-15 09:02 51.47594 -0.46184 87 ft 14 kts 90°
2026-04-15 09:02 51.47595 -0.46015 90 ft 16 kts 90°
2026-04-15 09:02 51.47596 -0.45817 89 ft 19 kts 89°
2026-04-15 09:03 51.47597 -0.45605 86 ft 17 kts 90°
2026-04-15 09:03 51.47597 -0.45396 86 ft 20 kts 89°
2026-04-15 09:03 51.47597 -0.45196 86 ft 19 kts 90°
2026-04-15 09:03 51.47598 -0.44970 86 ft 22 kts 90°
2026-04-15 09:04 51.47600 -0.44746 86 ft 18 kts 92°
2026-04-15 09:04 51.47599 -0.44579 86 ft 15 kts 89°
2026-04-15 09:04 51.47600 -0.44396 86 ft 18 kts 89°
2026-04-15 09:04 51.47592 -0.44226 86 ft 16 kts 90°
2026-04-15 09:05 51.47592 -0.44033 86 ft 19 kts 90°
2026-04-15 09:05 51.47593 -0.43811 86 ft 21 kts 89°
2026-04-15 09:05 51.47593 -0.43659 86 ft 12 kts 89°
2026-04-15 09:05 51.47604 -0.43555 90 ft 8 kts 56°
2026-04-15 09:06 51.47612 -0.43542 89 ft 0 kts 46°
2026-04-15 09:07 51.47614 -0.43538 90 ft 2 kts 46°
2026-04-15 09:07 51.47627 -0.43515 88 ft 4 kts 47°
2026-04-15 09:07 51.47650 -0.43472 86 ft 6 kts 51°
2026-04-15 09:08 51.47685 -0.43424 91 ft 7 kts 20°
2026-04-15 09:08 51.47739 -0.43427 89 ft 9 kts 348°
2026-04-15 09:08 51.47768 -0.43517 90 ft 11 kts 273°
2026-04-15 09:08 51.47768 -0.43546 87 ft 1 kts 270°
2026-04-15 09:09 51.47768 -0.43672 87 ft 42 kts 270°
2026-04-15 09:09 51.47766 -0.44533 89 ft 108 kts 269°
2026-04-15 09:09 51.47760 -0.46025 86 ft 157 kts 270°
2026-04-15 09:09 51.47748 -0.47906 437 ft 171 kts 271°
2026-04-15 09:10 51.47725 -0.49851 1055 ft 178 kts 271°
2026-04-15 09:10 51.47674 -0.51891 1555 ft 192 kts 269°
2026-04-15 09:10 51.47387 -0.54097 1896 ft 217 kts 245°
2026-04-15 09:10 51.46443 -0.56174 2280 ft 246 kts 226°
2026-04-15 09:11 51.44920 -0.57661 2823 ft 269 kts 198°
2026-04-15 09:11 51.43018 -0.57910 3549 ft 284 kts 175°
2026-04-15 09:11 51.41076 -0.57479 4590 ft 281 kts 171°
2026-04-15 09:11 51.39126 -0.56980 5351 ft 287 kts 171°
2026-04-15 09:12 51.37146 -0.56467 5612 ft 288 kts 171°
2026-04-15 09:12 51.35189 -0.55947 5695 ft 288 kts 168°
2026-04-15 09:12 51.33363 -0.54698 5715 ft 287 kts 141°
2026-04-15 09:12 51.32056 -0.52297 6389 ft 288 kts 122°
2026-04-15 09:13 51.30934 -0.49626 7305 ft 290 kts 121°
2026-04-15 09:13 51.29815 -0.46923 8163 ft 294 kts 121°
2026-04-15 09:13 51.28678 -0.44168 8972 ft 299 kts 121°
2026-04-15 09:13 51.27585 -0.41307 9719 ft 304 kts 112°
2026-04-15 09:14 51.27030 -0.37994 10110 ft 320 kts 93°
2026-04-15 09:14 51.26819 -0.34315 10336 ft 343 kts 92°
2026-04-15 09:14 51.26622 -0.30446 10809 ft 355 kts 92°
2026-04-15 09:14 51.26421 -0.26482 11460 ft 361 kts 93°
2026-04-15 09:15 51.26208 -0.22441 12115 ft 367 kts 94°
2026-04-15 09:15 51.25983 -0.18354 12746 ft 372 kts 95°
2026-04-15 09:15 51.25749 -0.14208 13387 ft 377 kts 95°
2026-04-15 09:15 51.25513 -0.10065 14024 ft 381 kts 96°
2026-04-15 09:16 51.25265 -0.05777 14676 ft 385 kts 97°
2026-04-15 09:16 51.25018 -0.01563 15323 ft 387 kts 97°
2026-04-15 09:16 51.24767 0.02730 15955 ft 390 kts 98°
2026-04-15 09:16 51.24515 0.07043 16583 ft 392 kts 98°
2026-04-15 09:17 51.24261 0.11384 17257 ft 393 kts 99°
2026-04-15 09:17 51.24005 0.15729 17974 ft 393 kts 99°
2026-04-15 09:17 51.23748 0.20061 18729 ft 392 kts 99°
2026-04-15 09:17 51.23489 0.24373 19509 ft 390 kts 99°
2026-04-15 09:18 51.23230 0.28675 20300 ft 388 kts 99°
2026-04-15 09:18 51.22972 0.32947 21026 ft 386 kts 99°
2026-04-15 09:18 51.22714 0.37196 21717 ft 385 kts 99°
2026-04-15 09:18 51.22455 0.41446 22354 ft 384 kts 98°
2026-04-15 09:19 51.22195 0.45672 22947 ft 383 kts 98°
2026-04-15 09:19 51.21932 0.49909 23491 ft 384 kts 97°
2026-04-15 09:19 51.21667 0.54155 23999 ft 385 kts 97°
2026-04-15 09:19 51.21401 0.58412 24477 ft 387 kts 96°
2026-04-15 09:20 51.21133 0.62691 24924 ft 389 kts 96°
2026-04-15 09:20 51.20859 0.66989 25342 ft 391 kts 95°
2026-04-15 09:20 51.20582 0.71310 25748 ft 393 kts 95°
2026-04-15 09:20 51.20300 0.75659 26124 ft 396 kts 94°
2026-04-15 09:21 51.20014 0.80043 26488 ft 399 kts 94°
2026-04-15 09:21 51.19729 0.84449 26841 ft 401 kts 94°
2026-04-15 09:21 51.19442 0.88898 27174 ft 405 kts 93°
2026-04-15 09:21 51.19152 0.93381 27493 ft 408 kts 92°
2026-04-15 09:22 51.18857 0.97902 27802 ft 412 kts 92°
2026-04-15 09:22 51.18556 1.02469 28116 ft 415 kts 92°
2026-04-15 09:22 51.18246 1.07072 28415 ft 419 kts 92°
2026-04-15 09:22 51.17930 1.11711 28697 ft 423 kts 92°
2026-04-15 09:23 51.17610 1.16396 28979 ft 427 kts 92°
2026-04-15 09:23 51.17287 1.21116 29276 ft 429 kts 92°
2026-04-15 09:23 51.16965 1.25858 29583 ft 432 kts 92°
2026-04-15 09:23 51.16639 1.30627 29892 ft 434 kts 92°
2026-04-15 09:24 51.16307 1.35420 30239 ft 435 kts 92°
2026-04-15 09:24 51.15999 1.40205 30677 ft 433 kts 91°
2026-04-15 09:24 51.15750 1.44976 31109 ft 431 kts 90°
2026-04-15 09:24 51.15537 1.49731 31525 ft 430 kts 90°
2026-04-15 09:25 51.15347 1.54263 31904 ft 429 kts 90°
2026-04-15 09:25 51.15135 1.59217 32337 ft 428 kts 90°
2026-04-15 09:25 51.14922 1.63948 32739 ft 428 kts 90°
2026-04-15 09:25 51.14697 1.68672 33136 ft 427 kts 90°
2026-04-15 09:26 51.14462 1.73380 33539 ft 427 kts 90°
2026-04-15 09:26 51.14218 1.78087 33927 ft 426 kts 90°
2026-04-15 09:26 51.13973 1.82779 34311 ft 425 kts 90°
2026-04-15 09:26 51.13727 1.87473 34651 ft 425 kts 90°
2026-04-15 09:27 51.13238 1.96867 34756 ft 427 kts 90°
2026-04-15 09:27 51.12755 2.06230 34756 ft 427 kts 90°
2026-04-15 09:28 51.12248 2.15667 34756 ft 428 kts 91°
2026-04-15 09:28 51.11727 2.25095 34756 ft 428 kts 91°
2026-04-15 09:29 51.11209 2.34524 34757 ft 428 kts 91°
2026-04-15 09:29 51.10688 2.43955 34760 ft 428 kts 91°
2026-04-15 09:30 51.10156 2.53385 34763 ft 428 kts 91°
2026-04-15 09:30 51.09607 2.62830 34766 ft 429 kts 92°
2026-04-15 09:31 51.08216 2.72132 34767 ft 435 kts 101°
2026-04-15 09:31 51.06541 2.81367 34769 ft 435 kts 101°
2026-04-15 09:32 51.04864 2.90600 34769 ft 435 kts 101°
2026-04-15 09:32 51.03180 2.99839 34771 ft 435 kts 101°
2026-04-15 09:33 51.01500 3.09002 34770 ft 435 kts 101°
2026-04-15 09:33 50.99798 3.18215 34770 ft 435 kts 102°
2026-04-15 09:34 50.98086 3.27422 34770 ft 435 kts 102°
2026-04-15 09:34 50.96371 3.36628 34769 ft 435 kts 102°
2026-04-15 09:35 50.94643 3.45820 34770 ft 435 kts 102°
2026-04-15 09:35 50.92950 3.54818 34769 ft 435 kts 102°
2026-04-15 09:36 50.91257 3.63759 34768 ft 435 kts 102°
2026-04-15 09:36 50.89458 3.73154 34771 ft 435 kts 102°
2026-04-15 09:37 50.87684 3.82308 34768 ft 435 kts 102°
2026-04-15 09:37 50.86200 3.89924 34767 ft 435 kts 102°
2026-04-15 09:38 50.84416 3.99071 34764 ft 435 kts 102°
2026-04-15 09:38 50.82632 4.08213 34766 ft 435 kts 102°
2026-04-15 09:39 50.80835 4.17356 34763 ft 435 kts 102°
2026-04-15 09:39 50.79033 4.26489 34764 ft 435 kts 102°
2026-04-15 09:40 50.77222 4.35616 34766 ft 435 kts 103°
2026-04-15 09:40 50.75390 4.44742 34764 ft 436 kts 103°
2026-04-15 09:41 50.73557 4.53863 34766 ft 436 kts 103°
2026-04-15 09:41 50.71729 4.62985 34767 ft 436 kts 102°
2026-04-15 09:42 50.69965 4.72071 34770 ft 436 kts 102°
2026-04-15 09:42 50.68214 4.81210 34769 ft 435 kts 102°
2026-04-15 09:43 50.66438 4.90344 34767 ft 435 kts 102°
2026-04-15 09:43 50.64611 4.99451 34767 ft 436 kts 103°
2026-04-15 09:44 50.62728 5.08532 34765 ft 436 kts 103°
2026-04-15 09:44 50.60828 5.17612 34766 ft 436 kts 103°
2026-04-15 09:45 50.58943 5.26685 34765 ft 436 kts 103°
2026-04-15 09:45 50.57061 5.35758 34763 ft 436 kts 103°
2026-04-15 09:46 50.55170 5.44819 34765 ft 436 kts 103°
2026-04-15 09:46 50.53268 5.53883 34763 ft 436 kts 103°
2026-04-15 09:47 50.51346 5.62938 34761 ft 436 kts 103°
2026-04-15 09:47 50.49597 5.71874 34760 ft 435 kts 101°
2026-04-15 09:48 50.48059 5.80393 34747 ft 435 kts 101°
2026-04-15 09:48 50.46301 5.89766 34754 ft 436 kts 101°
2026-04-15 09:49 50.44612 5.98916 34443 ft 437 kts 102°
2026-04-15 09:49 50.43756 6.03494 33793 ft 439 kts 102°
2026-04-15 09:49 50.42888 6.08106 32893 ft 443 kts 102°
2026-04-15 09:50 50.42008 6.12756 32012 ft 446 kts 102°
2026-04-15 09:50 50.41117 6.17424 31261 ft 446 kts 102°
2026-04-15 09:50 50.40238 6.21978 30778 ft 439 kts 102°
2026-04-15 09:50 50.39352 6.26540 30210 ft 435 kts 102°
2026-04-15 09:51 50.38474 6.31050 29648 ft 431 kts 103°
2026-04-15 09:51 50.37608 6.35511 29107 ft 425 kts 103°
2026-04-15 09:51 50.36761 6.39916 28574 ft 419 kts 102°
2026-04-15 09:51 50.36235 6.44339 28052 ft 410 kts 93°
2026-04-15 09:52 50.35984 6.48749 27541 ft 403 kts 93°
2026-04-15 09:52 50.35726 6.53092 27027 ft 398 kts 95°
2026-04-15 09:52 50.35457 6.57377 26526 ft 393 kts 95°
2026-04-15 09:52 50.35182 6.61610 26037 ft 388 kts 96°
2026-04-15 09:53 50.34908 6.65777 25558 ft 383 kts 97°
2026-04-15 09:53 50.34638 6.69905 25093 ft 379 kts 97°
2026-04-15 09:53 50.34375 6.73981 24636 ft 375 kts 97°
2026-04-15 09:53 50.34118 6.78030 24204 ft 372 kts 98°
2026-04-15 09:54 50.33869 6.82043 23768 ft 369 kts 98°
2026-04-15 09:54 50.33441 6.85979 23354 ft 364 kts 108°
2026-04-15 09:54 50.32592 6.89664 22952 ft 358 kts 117°
2026-04-15 09:54 50.31542 6.93170 22549 ft 354 kts 118°
2026-04-15 09:55 50.30500 6.96650 22145 ft 351 kts 118°
2026-04-15 09:55 50.29472 7.00090 21745 ft 348 kts 118°
2026-04-15 09:55 50.28445 7.03526 21295 ft 355 kts 118°
2026-04-15 09:55 50.27381 7.07072 20810 ft 364 kts 119°
2026-04-15 09:56 50.26300 7.10677 20328 ft 368 kts 119°
2026-04-15 09:56 50.25218 7.14299 19844 ft 369 kts 119°
2026-04-15 09:56 50.23045 7.21573 18872 ft 369 kts 119°
2026-04-15 09:57 50.21954 7.25200 18383 ft 368 kts 119°
2026-04-15 09:57 50.20864 7.28803 17897 ft 367 kts 119°
2026-04-15 09:57 50.19774 7.32416 17425 ft 368 kts 118°
2026-04-15 09:57 50.18760 7.36087 16929 ft 370 kts 116°
2026-04-15 09:58 50.17839 7.39837 16436 ft 370 kts 113°
2026-04-15 09:58 50.16970 7.43618 15953 ft 371 kts 112°
2026-04-15 09:58 50.16124 7.47372 15468 ft 371 kts 111°
2026-04-15 09:58 50.15259 7.51170 14980 ft 371 kts 111°
2026-04-15 09:59 50.14382 7.54942 14486 ft 370 kts 111°
2026-04-15 09:59 50.13492 7.58688 14013 ft 368 kts 111°
2026-04-15 09:59 50.12593 7.62411 13525 ft 366 kts 111°
2026-04-15 09:59 50.11696 7.66107 13038 ft 364 kts 111°
2026-04-15 10:00 50.10865 7.69598 12594 ft 361 kts 109°
2026-04-15 10:00 50.10040 7.73483 12144 ft 358 kts 107°
2026-04-15 10:00 50.09324 7.77173 11717 ft 355 kts 105°
2026-04-15 10:00 50.08645 7.80849 11291 ft 351 kts 102°
2026-04-15 10:01 50.08319 7.84573 10869 ft 344 kts 88°
2026-04-15 10:01 50.08552 7.88218 10596 ft 333 kts 75°
2026-04-15 10:01 50.09255 7.91665 10529 ft 334 kts 66°
2026-04-15 10:01 50.10086 7.95040 10429 ft 332 kts 66°
2026-04-15 10:02 50.10904 7.98403 10300 ft 331 kts 66°
2026-04-15 10:02 50.11706 8.01713 10187 ft 330 kts 66°
2026-04-15 10:02 50.12509 8.05043 10077 ft 324 kts 66°
2026-04-15 10:02 50.13284 8.08266 9937 ft 312 kts 66°
2026-04-15 10:03 50.14036 8.11381 9812 ft 301 kts 66°
2026-04-15 10:03 50.14765 8.14396 9574 ft 295 kts 66°
2026-04-15 10:03 50.15482 8.17346 9435 ft 289 kts 66°
2026-04-15 10:03 50.16196 8.20283 9309 ft 288 kts 66°
2026-04-15 10:04 50.16904 8.23200 9185 ft 287 kts 66°
2026-04-15 10:04 50.17609 8.26117 9058 ft 286 kts 66°
2026-04-15 10:04 50.18313 8.29024 8932 ft 286 kts 66°
2026-04-15 10:04 50.19012 8.31919 8801 ft 285 kts 67°
2026-04-15 10:05 50.19370 8.34926 8680 ft 290 kts 89°
2026-04-15 10:05 50.18862 8.37970 8552 ft 295 kts 116°
2026-04-15 10:05 50.17521 8.40396 8428 ft 299 kts 144°
2026-04-15 10:05 50.15639 8.41764 8304 ft 300 kts 163°
2026-04-15 10:06 50.13607 8.42119 8174 ft 291 kts 187°
2026-04-15 10:06 50.11725 8.41245 8045 ft 277 kts 212°
2026-04-15 10:06 50.10305 8.39360 7924 ft 263 kts 237°
2026-04-15 10:06 50.09495 8.36909 7742 ft 252 kts 253°
2026-04-15 10:07 50.08884 8.34364 7467 ft 250 kts 253°
2026-04-15 10:07 50.08275 8.31834 7179 ft 249 kts 253°
2026-04-15 10:07 50.07667 8.29320 6887 ft 247 kts 253°
2026-04-15 10:07 50.07062 8.26818 6597 ft 246 kts 252°
2026-04-15 10:08 50.06459 8.24330 6305 ft 244 kts 252°
2026-04-15 10:08 50.05874 8.21939 6131 ft 229 kts 252°
2026-04-15 10:08 50.05312 8.19656 5752 ft 224 kts 252°
2026-04-15 10:08 50.04759 8.17406 5300 ft 221 kts 252°
2026-04-15 10:09 50.04215 8.15180 4886 ft 218 kts 252°
2026-04-15 10:09 50.03694 8.13049 4714 ft 205 kts 252°
2026-04-15 10:09 50.03196 8.11008 4511 ft 199 kts 252°
2026-04-15 10:09 50.02669 8.09039 4494 ft 198 kts 240°
2026-04-15 10:10 50.01619 8.07670 4493 ft 203 kts 201°
2026-04-15 10:10 50.00215 8.07556 4495 ft 207 kts 162°
2026-04-15 10:10 49.98927 8.08547 4495 ft 207 kts 146°
2026-04-15 10:10 49.97731 8.09795 4492 ft 207 kts 144°
2026-04-15 10:11 49.96645 8.11247 4489 ft 206 kts 127°
2026-04-15 10:11 49.95933 8.13149 4494 ft 203 kts 106°
2026-04-15 10:11 49.95677 8.15282 4491 ft 200 kts 86°
2026-04-15 10:11 49.95893 8.17380 4494 ft 196 kts 66°
2026-04-15 10:12 49.96374 8.19364 4482 ft 197 kts 66°
2026-04-15 10:12 49.96857 8.21347 4299 ft 195 kts 66°
2026-04-15 10:12 49.97337 8.23320 4052 ft 195 kts 66°
2026-04-15 10:12 49.97814 8.25285 3786 ft 194 kts 66°
2026-04-15 10:13 49.98290 8.27247 3514 ft 194 kts 66°
2026-04-15 10:13 49.98765 8.29210 3239 ft 194 kts 66°
2026-04-15 10:13 49.99241 8.31175 2962 ft 194 kts 66°
2026-04-15 10:13 49.99716 8.33141 2688 ft 195 kts 66°
2026-04-15 10:14 50.00193 8.35115 2412 ft 195 kts 66°
2026-04-15 10:14 50.00671 8.37093 2139 ft 195 kts 66°
2026-04-15 10:14 50.01141 8.39043 1876 ft 190 kts 66°
2026-04-15 10:14 50.01586 8.40898 1616 ft 171 kts 66°
2026-04-15 10:15 50.01978 8.42530 1368 ft 152 kts 66°
2026-04-15 10:15 50.02339 8.44029 1159 ft 145 kts 66°
2026-04-15 10:15 50.02689 8.45481 958 ft 142 kts 66°
2026-04-15 10:15 50.03039 8.46913 738 ft 140 kts 66°
2026-04-15 10:16 50.03383 8.48333 536 ft 140 kts 68°
2026-04-15 10:16 50.03717 8.49751 369 ft 140 kts 68°
2026-04-15 10:16 50.04029 8.51058 326 ft 112 kts 69°
2026-04-15 10:16 50.04264 8.52039 338 ft 81 kts 70°
2026-04-15 10:17 50.04427 8.52720 348 ft 56 kts 70°
2026-04-15 10:17 50.04515 8.53090 359 ft 22 kts 69°
2026-04-15 10:17 50.04547 8.53312 359 ft 21 kts 108°
2026-04-15 10:17 50.04487 8.53403 365 ft 8 kts 155°
2026-04-15 10:18 50.04455 8.53422 372 ft 2 kts 159°
2026-04-15 10:18 50.04449 8.53426 372 ft 2 kts 159°
2026-04-15 10:18 50.04418 8.53444 373 ft 8 kts 155°
2026-04-15 10:18 50.04397 8.53550 375 ft 16 kts 84°
2026-04-15 10:19 50.04413 8.53783 375 ft 25 kts 83°
2026-04-15 10:19 50.04427 8.54005 375 ft 26 kts 84°
2026-04-15 10:19 50.04447 8.54298 375 ft 13 kts 85°
2026-04-15 10:19 50.04452 8.54466 369 ft 13 kts 97°
2026-04-15 10:20 50.04414 8.54631 365 ft 10 kts 123°
2026-04-15 10:20 50.04351 8.54735 359 ft 14 kts 143°
2026-04-15 10:20 50.04263 8.54799 356 ft 17 kts 163°
2026-04-15 10:20 50.04139 8.54869 353 ft 20 kts 160°
2026-04-15 10:21 50.04052 8.54920 354 ft 8 kts 159°
2026-04-15 10:21 50.04042 8.54926 356 ft 0 kts 158°
2026-04-15 10:21 50.04034 8.54930 355 ft 2 kts 159°
2026-04-15 10:22 50.04020 8.54947 356 ft 3 kts 132°
2026-04-15 10:22 50.04013 8.54983 357 ft 5 kts 97°
2026-04-15 10:22 50.04027 8.55054 356 ft 10 kts 69°
2026-04-15 10:22 50.04046 8.55133 356 ft 13 kts 70°
2026-04-15 10:23 50.04085 8.55298 361 ft 19 kts 70°
2026-04-15 10:23 50.04124 8.55459 351 ft 18 kts 70°
2026-04-15 10:23 50.04174 8.55673 357 ft 22 kts 70°
2026-04-15 10:23 50.04217 8.55851 360 ft 20 kts 70°
2026-04-15 10:24 50.04270 8.56073 358 ft 24 kts 70°
2026-04-15 10:24 50.04328 8.56312 362 ft 23 kts 70°
2026-04-15 10:24 50.04388 8.56563 361 ft 26 kts 69°
2026-04-15 10:24 50.04439 8.56780 360 ft 21 kts 70°
2026-04-15 10:25 50.04482 8.56958 360 ft 18 kts 70°
2026-04-15 10:25 50.04522 8.57125 359 ft 16 kts 70°
2026-04-15 10:25 50.04566 8.57309 359 ft 20 kts 69°
2026-04-15 10:25 50.04613 8.57504 361 ft 17 kts 69°
2026-04-15 10:26 50.04659 8.57698 364 ft 21 kts 69°
2026-04-15 10:26 50.04697 8.57856 359 ft 13 kts 69°
2026-04-15 10:26 50.04668 8.57982 363 ft 16 kts 156°
2026-04-15 10:26 50.04578 8.58038 365 ft 9 kts 144°
2026-04-15 10:27 50.04566 8.58121 363 ft 8 kts 71°
2026-04-15 10:27 50.04589 8.58211 368 ft 9 kts 69°
2026-04-15 10:27 50.04610 8.58302 370 ft 9 kts 70°
2026-04-15 10:27 50.04635 8.58409 370 ft 12 kts 70°
2026-04-15 10:28 50.04669 8.58549 369 ft 16 kts 69°
2026-04-15 10:28 50.04713 8.58725 369 ft 19 kts 66°
2026-04-15 10:28 50.04754 8.58882 370 ft 15 kts 69°
2026-04-15 10:28 50.04795 8.59057 370 ft 19 kts 69°
2026-04-15 10:29 50.04834 8.59148 368 ft 8 kts 358°
2026-04-15 10:29 50.04890 8.59116 372 ft 5 kts 339°
2026-04-15 10:29 50.04903 8.59109 365 ft 2 kts 339°
2026-04-15 10:29 50.04904 8.59108 365 ft 0 kts 339°